Location: Kampung Segan
(3.1399°N, 113.1002°E)
Time: 13:22:01
(UTC+00:00)

CZ-4 R/B - Pass Details

Date: 05 August 2024
Orbit: 512 x 566 km, 97.6° (Epoch: 07 September)

Event Time Altitude Azimuth Distance (km) Brightness Sun altitude
Exits shadow 12:35:01 35° 328° (NNW) 896 2.7 -27.9°
Drops below altitude 10° 12:37:23 10° 341° (NNW) 1,801 4.4 -28.4°
Sets 12:39:29 0° 344° (NNW) 2,680 5.3 -28.9°
